| time (UTC) | temp C | wind direction | speed KPH | gust KPH | rain 1hr cm | rain 24hr cm | rain mn cm | humidity % | barometer mb |
| 20260510144828 | 8 | 237 | 9.7 | 12.9 | 0.00 | 0.20 | 0.20 | 78 | 1066.7 |
| 20260510143824 | 8 | 278 | 4.8 | 4.8 | 0.00 | 0.20 | 0.20 | 82 | 1066.8 |
| 20260510142824 | 7 | 240 | 9.7 | 12.9 | 0.00 | 0.20 | 0.20 | 82 | 1066.7 |
| 20260510141823 | 7 | 240 | 4.8 | 8.0 | 0.00 | 0.20 | 0.20 | 84 | 1066.6 |
| 20260510140818 | 7 | 233 | 12.9 | 14.5 | 0.00 | 0.20 | 0.20 | 90 | 1066.9 |
| 20260510135813 | 6 | 235 | 8.0 | 9.7 | 0.00 | 0.20 | 0.20 | 91 | 1066.6 |
| 20260510134813 | 6 | 261 | 1.6 | 1.6 | 0.00 | 0.20 | 0.20 | 96 | 1066.5 |
| 20260510133811 | 6 | 271 | 0.0 | 0.0 | 0.00 | 0.20 | 0.20 | 96 | 1066.9 |
| 20260510132809 | 6 | 261 | 0.0 | 1.6 | 0.18 | 0.20 | 0.20 | 95 | 1066.7 |
| 20260510131804 | 6 | 282 | 1.6 | 1.6 | 0.00 | 0.18 | 0.18 | 96 | 1067.3 |
| 20260510130804 | 6 | 255 | 1.6 | 1.6 | 0.00 | 0.18 | 0.18 | 95 | 1067.2 |
| 20260510125803 | 6 | 253 | 1.6 | 1.6 | 0.00 | 0.18 | 0.18 | 94 | 1066.9 |
| 20260510124802 | 6 | 271 | 0.0 | 1.6 | 0.00 | 0.18 | 0.18 | 95 | 1066.6 |
| 20260510123801 | 6 | 270 | 0.0 | 0.0 | 0.00 | 0.18 | 0.18 | 97 | 1066.5 |
| 20260510122759 | 6 | 266 | 0.0 | 0.0 | 0.00 | 0.18 | 0.18 | 97 | 1066.1 |
| 20260510121758 | 6 | 270 | 0.0 | 0.0 | 0.00 | 0.18 | 0.18 | 97 | 1065.6 |
| 20260510120758 | 6 | 296 | 4.8 | 4.8 | 0.00 | 0.18 | 0.18 | 98 | 1065.8 |
| 20260510115757 | 6 | 291 | 1.6 | 1.6 | 0.00 | 0.18 | 0.18 | 99 | 1065.5 |
| 20260510114755 | 6 | 304 | 4.8 | 4.8 | 0.00 | 0.18 | 0.18 | 99 | 1065.3 |
| 20260510113753 | 6 | 305 | 4.8 | 4.8 | 0.13 | 0.18 | 0.18 | 99 | 1065.2 |
| 20260510112753 | 7 | 322 | 4.8 | 4.8 | 0.00 | 0.15 | 0.15 | 99 | 1065.1 |
| 20260510111751 | 7 | 313 | 8.0 | 9.7 | 0.00 | 0.15 | 0.15 | 99 | 1065.2 |
| 20260510110747 | 8 | 252 | 1.6 | 3.2 | 0.00 | 0.15 | 0.15 | 99 | 1064.6 |
| 20260510105746 | 8 | 241 | 3.2 | 4.8 | 0.00 | 0.15 | 0.15 | 99 | 1064.7 |
| 20260510104743 | 8 | 250 | 4.8 | 4.8 | 0.00 | 0.15 | 0.15 | 99 | 1064.4 |
| 20260510103743 | 8 | 239 | 4.8 | 4.8 | 0.00 | 0.15 | 0.15 | 99 | 1064.2 |
| 20260510102740 | 8 | 242 | 1.6 | 3.2 | 0.00 | 0.15 | 0.15 | 99 | 1063.7 |
| 20260510101739 | 8 | 247 | 4.8 | 4.8 | 0.00 | 0.15 | 0.15 | 99 | 1063.4 |
| 20260510100739 | 8 | 259 | 0.0 | 1.6 | 0.00 | 0.15 | 0.15 | 99 | 1063.7 |
| 20260510095738 | 8 | 245 | 4.8 | 4.8 | 0.00 | 0.15 | 0.15 | 99 | 1063.5 |
| 20260510094738 | 8 | 251 | 3.2 | 3.2 | 0.00 | 0.15 | 0.15 | 99 | 1063.2 |
| 20260510093735 | 8 | 255 | 0.0 | 0.0 | 0.00 | 0.15 | 0.15 | 99 | 1063.0 |
| 20260510092735 | 8 | 265 | 0.0 | 0.0 | 0.00 | 0.15 | 0.15 | 99 | 1063.0 |
| 20260510091732 | 8 | 262 | 0.0 | 0.0 | 0.00 | 0.15 | 0.15 | 99 | 1063.0 |
| 20260510090732 | 8 | 259 | 0.0 | 1.6 | 0.00 | 0.15 | 0.15 | 99 | 1062.9 |
| 20260510085730 | 8 | 262 | 0.0 | 0.0 | 0.00 | 0.15 | 0.15 | 99 | 1062.7 |
| 20260510084727 | 8 | 245 | 4.8 | 4.8 | 0.00 | 0.15 | 0.15 | 99 | 1062.7 |
| 20260510083727 | 8 | 261 | 3.2 | 3.2 | 0.00 | 0.15 | 0.15 | 99 | 1062.5 |
| 20260510082725 | 8 | 254 | 0.0 | 0.0 | 0.00 | 0.15 | 0.15 | 99 | 1062.6 |
| 20260510081721 | 8 | 240 | 4.8 | 4.8 | 0.00 | 0.15 | 0.15 | 99 | 1062.7 |
| 20260510080719 | 8 | 246 | 4.8 | 4.8 | 0.00 | 0.15 | 0.15 | 99 | 1062.8 |
| 20260510075717 | 8 | 248 | 1.6 | 1.6 | 0.00 | 0.15 | 0.15 | 99 | 1062.5 |
| 20260510074712 | 8 | 265 | 0.0 | 0.0 | 0.00 | 0.15 | 0.15 | 99 | 1062.6 |
| 20260510073711 | 8 | 248 | 3.2 | 3.2 | 0.00 | 0.15 | 0.15 | 99 | 1062.6 |
| 20260510072708 | 8 | 257 | 0.0 | 0.0 | 0.00 | 0.15 | 0.15 | 99 | 1062.3 |
| 20260510071707 | 8 | 258 | 1.6 | 1.6 | 0.00 | 0.15 | 0.15 | 99 | 1062.4 |
| 20260510070707 | 8 | 264 | 0.0 | 0.0 | 0.00 | 0.15 | 0.15 | 99 | 1062.0 |
| 20260510065705 | 8 | 256 | 3.2 | 3.2 | 0.00 | 0.15 | 0.15 | 99 | 1061.9 |
| 20260510064704 | 8 | 206 | 1.6 | 3.2 | 0.00 | 0.15 | 0.15 | 99 | 1062.0 |
| 20260510063659 | 8 | 258 | 1.6 | 1.6 | 0.00 | 0.15 | 0.15 | 99 | 1062.6 |
| 20260510062657 | 8 | 256 | 1.6 | 3.2 | 0.00 | 0.15 | 0.15 | 99 | 1062.7 |
| 20260510061654 | 8 | 255 | 3.2 | 3.2 | 0.00 | 0.15 | 0.15 | 99 | 1062.8 |
| 20260510060654 | 8 | 253 | 3.2 | 3.2 | 0.00 | 0.15 | 0.15 | 99 | 1062.9 |
| 20260510055653 | 8 | 258 | 1.6 | 1.6 | 0.00 | 0.15 | 0.15 | 99 | 1062.8 |
| 20260510054652 | 8 | 254 | 0.0 | 1.6 | 0.00 | 0.15 | 0.15 | 99 | 1062.6 |
| 20260510053647 | 8 | 264 | 0.0 | 1.6 | 0.00 | 0.15 | 0.15 | 99 | 1062.6 |
| 20260510052646 | 8 | 261 | 0.0 | 1.6 | 0.00 | 0.15 | 0.15 | 99 | 1062.4 |
| 20260510051644 | 9 | 263 | 0.0 | 0.0 | 0.00 | 0.15 | 0.15 | 99 | 1062.5 |
| 20260510050644 | 9 | 244 | 1.6 | 1.6 | 0.36 | 0.15 | 0.15 | 99 | 1062.5 |
| 20260510045643 | 9 | 255 | 0.0 | 0.0 | 0.13 | 0.10 | 0.10 | 99 | 1062.7 |
| 20260510044642 | 9 | 267 | 0.0 | 0.0 | 0.13 | 0.05 | 0.05 | 99 | 1062.6 |
| 20260510043641 | 9 | 262 | 0.0 | 1.6 | 0.00 | 0.03 | 0.03 | 99 | 1062.4 |
| 20260510042640 | 9 | 263 | 0.0 | 0.0 | 0.18 | 0.03 | 0.03 | 99 | 1062.4 |
| 20260510041639 | 9 | 257 | 0.0 | 0.0 | 0.00 | 0.00 | 0.00 | 99 | 1062.3 |
| 20260510040639 | 9 | 255 | 1.6 | 1.6 | 0.00 | 0.00 | 0.00 | 99 | 1062.5 |
| 20260510035637 | 10 | 237 | 9.7 | 11.3 | 0.13 | 0.13 | 0.13 | 99 | 1062.6 |
| 20260510034635 | 10 | 284 | 11.3 | 12.9 | 0.48 | 0.10 | 0.10 | 99 | 1062.7 |
| 20260510033634 | 10 | 237 | 6.4 | 9.7 | 0.13 | 0.03 | 0.03 | 99 | 1062.2 |
| 20260510032635 | 10 | 166 | 8.0 | 9.7 | 0.00 | 0.00 | 0.00 | 97 | 1061.4 |
| 20260510031631 | 10 | 178 | 3.2 | 3.2 | 0.00 | 0.00 | 0.00 | 97 | 1061.9 |
| 20260510030628 | 10 | 227 | 4.8 | 8.0 | 0.00 | 0.00 | 0.00 | 97 | 1061.6 |
| 20260510025623 | 10 | 285 | 1.6 | 3.2 | 0.00 | 0.00 | 0.00 | 97 | 1061.8 |
| 20260510024623 | 10 | 257 | 6.4 | 9.7 | 0.00 | 0.00 | 0.00 | 97 | 1061.5 |
| 20260510023621 | 10 | 163 | 6.4 | 8.0 | 0.00 | 0.00 | 0.00 | 97 | 1061.0 |
| 20260510022619 | 10 | 181 | 4.8 | 9.7 | 0.00 | 0.00 | 0.00 | 97 | 1061.3 |
| 20260510021616 | 10 | 235 | 4.8 | 4.8 | 0.00 | 0.00 | 0.00 | 97 | 1061.3 |
| 20260510020613 | 10 | 232 | 4.8 | 4.8 | 0.00 | 0.00 | 0.00 | 96 | 1061.2 |
| 20260510015611 | 10 | 190 | 6.4 | 9.7 | 0.00 | 0.00 | 0.00 | 96 | 1061.2 |
| 20260510014609 | 10 | 165 | 4.8 | 4.8 | 0.00 | 0.00 | 0.00 | 96 | 1061.5 |
| 20260510013607 | 10 | 163 | 8.0 | 11.3 | 0.00 | 0.00 | 0.00 | 96 | 1061.4 |
| 20260510012602 | 10 | 183 | 11.3 | 12.9 | 0.00 | 0.00 | 0.00 | 96 | 1061.3 |
| 20260510011559 | 10 | 191 | 8.0 | 11.3 | 0.00 | 0.00 | 0.00 | 96 | 1061.1 |
| 20260510010557 | 10 | 200 | 3.2 | 3.2 | 0.00 | 0.00 | 0.00 | 97 | 1061.2 |
| 20260510005555 | 10 | 243 | 1.6 | 1.6 | 0.00 | 0.00 | 0.00 | 97 | 1061.2 |
| 20260510004551 | 10 | 209 | 3.2 | 3.2 | 0.00 | 0.00 | 0.00 | 98 | 1061.0 |
| 20260510003551 | 10 | 212 | 1.6 | 3.2 | 0.00 | 0.00 | 0.00 | 97 | 1060.7 |
| 20260510002548 | 10 | 209 | 1.6 | 1.6 | 0.00 | 0.00 | 0.00 | 97 | 1060.8 |
| 20260510001548 | 10 | 206 | 3.2 | 4.8 | 0.00 | 0.00 | 0.00 | 97 | 1060.7 |
| 20260510000548 | 10 | 200 | 4.8 | 4.8 | 0.00 | 0.00 | 0.00 | 96 | 1060.7 |
| 20260509235547 | 10 | 205 | 4.8 | 4.8 | 0.00 | 0.00 | 0.00 | 96 | 1060.7 |
| 20260509234545 | 10 | 172 | 4.8 | 8.0 | 0.00 | 0.00 | 0.00 | 95 | 1060.7 |
| 20260509233541 | 10 | 194 | 6.4 | 8.0 | 0.00 | 0.00 | 0.00 | 95 | 1060.7 |
| 20260509232540 | 10 | 237 | 1.6 | 3.2 | 0.00 | 0.00 | 0.00 | 94 | 1060.9 |
| 20260509231539 | 10 | 259 | 0.0 | 0.0 | 0.00 | 0.00 | 0.00 | 94 | 1061.0 |
| 20260509230539 | 10 | 256 | 1.6 | 1.6 | 0.00 | 0.00 | 0.00 | 94 | 1060.8 |
| 20260509225537 | 10 | 166 | 4.8 | 8.0 | 0.00 | 0.00 | 0.00 | 94 | 1060.8 |
| 20260509224534 | 11 | 190 | 4.8 | 4.8 | 0.00 | 0.00 | 0.00 | 94 | 1061.1 |
| 20260509223534 | 10 | 221 | 3.2 | 3.2 | 0.00 | 0.00 | 0.00 | 94 | 1060.8 |
| 20260509222533 | 10 | 232 | 1.6 | 1.6 | 0.00 | 0.00 | 0.00 | 94 | 1060.7 |
| 20260509221531 | 10 | 168 | 8.0 | 9.7 | 0.00 | 0.00 | 0.00 | 94 | 1060.8 |
| 20260509220529 | 10 | 150 | 8.0 | 9.7 | 0.00 | 0.00 | 0.00 | 94 | 1060.7 |
| 20260509215526 | 10 | 173 | 6.4 | 9.7 | 0.00 | 0.00 | 0.00 | 95 | 1061.0 |
| 20260509214526 | 10 | 183 | 6.4 | 11.3 | 0.00 | 0.00 | 0.00 | 95 | 1061.0 |
| 20260509213525 | 10 | 169 | 9.7 | 11.3 | 0.00 | 0.00 | 0.00 | 94 | 1061.1 |
| 20260509212525 | 10 | 271 | 1.6 | 1.6 | 0.00 | 0.00 | 0.00 | 94 | 1061.1 |
| 20260509211523 | 10 | 172 | 8.0 | 11.3 | 0.00 | 0.00 | 0.00 | 94 | 1061.2 |
| 20260509210523 | 10 | 203 | 3.2 | 4.8 | 0.00 | 0.00 | 0.00 | 94 | 1061.4 |
| 20260509205520 | 10 | 234 | 4.8 | 4.8 | 0.00 | 0.00 | 0.00 | 94 | 1061.3 |
| 20260509204518 | 10 | 215 | 1.6 | 3.2 | 0.00 | 0.00 | 0.00 | 95 | 1061.2 |
| 20260509203516 | 10 | 200 | 3.2 | 3.2 | 0.00 | 0.00 | 0.00 | 95 | 1061.5 |
| 20260509202514 | 10 | 177 | 9.7 | 12.9 | 0.00 | 0.00 | 0.00 | 95 | 1061.5 |
| 20260509201511 | 10 | 239 | 3.2 | 3.2 | 0.00 | 0.00 | 0.00 | 95 | 1061.6 |
| 20260509200509 | 10 | 228 | 1.6 | 3.2 | 0.00 | 0.00 | 0.00 | 95 | 1061.6 |
| 20260509195507 | 10 | 187 | 4.8 | 4.8 | 0.00 | 0.00 | 0.00 | 95 | 1061.8 |
| 20260509194503 | 10 | 159 | 8.0 | 9.7 | 0.00 | 0.00 | 0.00 | 95 | 1061.9 |
| 20260509193500 | 9 | 266 | 4.8 | 4.8 | 0.00 | 0.00 | 0.00 | 96 | 1062.0 |
| 20260509192459 | 9 | 198 | 4.8 | 4.8 | 0.00 | 0.00 | 0.00 | 96 | 1062.1 |
| 20260509191455 | 9 | 168 | 9.7 | 11.3 | 0.00 | 0.00 | 0.00 | 97 | 1062.3 |
| 20260509190454 | 9 | 194 | 4.8 | 4.8 | 0.00 | 0.00 | 0.00 | 97 | 1062.4 |
| 20260509185449 | 8 | 165 | 8.0 | 9.7 | 0.00 | 0.00 | 0.00 | 97 | 1062.4 |
| 20260509184444 | 8 | 239 | 3.2 | 3.2 | 0.00 | 0.00 | 0.00 | 97 | 1062.3 |
| 20260509183440 | 8 | 186 | 4.8 | 8.0 | 0.00 | 0.00 | 0.00 | 98 | 1062.3 |
| 20260509182439 | 8 | 179 | 8.0 | 9.7 | 0.00 | 0.00 | 0.00 | 99 | 1062.3 |
| 20260509181435 | 8 | 144 | 8.0 | 11.3 | 0.00 | 0.00 | 0.00 | 99 | 1062.3 |
| 20260509180433 | 8 | 168 | 4.8 | 4.8 | 0.00 | 0.00 | 0.00 | 99 | 1062.4 |
| 20260509175432 | 8 | 138 | 4.8 | 4.8 | 0.00 | 0.00 | 0.00 | 98 | 1062.5 |
| 20260509174431 | 8 | 176 | 4.8 | 4.8 | 0.00 | 0.00 | 0.00 | 97 | 1062.7 |
| 20260509173426 | 8 | 154 | 8.0 | 9.7 | 0.00 | 0.00 | 0.00 | 95 | 1062.7 |
| 20260509172426 | 8 | 177 | 3.2 | 3.2 | 0.00 | 0.00 | 0.00 | 94 | 1062.8 |
| 20260509171424 | 8 | 159 | 9.7 | 11.3 | 0.00 | 0.00 | 0.00 | 91 | 1062.8 |
| 20260509170422 | 8 | 213 | 6.4 | 9.7 | 0.00 | 0.00 | 0.00 | 90 | 1062.6 |
| 20260509165418 | 9 | 179 | 8.0 | 9.7 | 0.00 | 0.00 | 0.00 | 88 | 1062.9 |
| 20260509164416 | 10 | 232 | 1.6 | 1.6 | 0.00 | 0.00 | 0.00 | 86 | 1063.2 |
| 20260509163416 | 9 | 238 | 4.8 | 4.8 | 0.00 | 0.00 | 0.00 | 87 | 1063.1 |
| 20260509162413 | 9 | 195 | 4.8 | 4.8 | 0.00 | 0.00 | 0.00 | 87 | 1063.1 |
| 20260509161411 | 9 | 151 | 4.8 | 4.8 | 0.00 | 0.00 | 0.00 | 85 | 1063.4 |
| 20260509160408 | 10 | 173 | 8.0 | 9.7 | 0.00 | 0.00 | 0.00 | 84 | 1063.5 |
| 20260509155406 | 10 | 220 | 3.2 | 3.2 | 0.00 | 0.00 | 0.00 | 85 | 1063.5 |
| 20260509154404 | 9 | 205 | 4.8 | 4.8 | 0.00 | 0.00 | 0.00 | 85 | 1063.5 |
| 20260509153359 | 9 | 231 | 4.8 | 4.8 | 0.00 | 0.00 | 0.00 | 85 | 1063.9 |
| 20260509152357 | 9 | 182 | 4.8 | 8.0 | 0.00 | 0.00 | 0.00 | 85 | 1063.8 |
| 20260509151356 | 8 | 183 | 8.0 | 9.7 | 0.00 | 0.00 | 0.00 | 85 | 1063.8 |
| 20260509150352 | 8 | 205 | 8.0 | 11.3 | 0.00 | 0.00 | 0.00 | 84 | 1063.9 |